| time (UTC) | temp F | wind direction | speed MPH | gust MPH | rain 1hr in | rain 24hr in | rain mn in | humidity % | barometer mb |
| 20260510102256 | 72 | 13 | 3.0 | 10.0 | 0.00 | 0.00 | 0.00 | 48 | 1011.2 |
| 20260510100748 | 72 | 27 | 3.0 | 10.0 | 0.00 | 0.00 | 0.00 | 50 | 1011.3 |
| 20260510093748 | 69 | 21 | 2.0 | 8.0 | 0.00 | 0.00 | 0.00 | 52 | 1011.6 |
| 20260510092245 | 70 | 284 | 2.0 | 6.0 | 0.00 | 0.00 | 0.00 | 51 | 1011.7 |
| 20260510090744 | 69 | 31 | 2.0 | 7.0 | 0.00 | 0.00 | 0.00 | 52 | 1011.9 |
| 20260510083745 | 67 | 32 | 2.0 | 9.0 | 0.00 | 0.00 | 0.00 | 57 | 1012.0 |
| 20260510082244 | 67 | 259 | 1.0 | 5.0 | 0.00 | 0.00 | 0.00 | 59 | 1012.0 |
| 20260510075242 | 66 | 5 | 3.0 | 10.0 | 0.00 | 0.00 | 0.00 | 61 | 1012.4 |
| 20260510073744 | 64 | 188 | 1.0 | 4.0 | 0.00 | 0.00 | 0.00 | 63 | 1012.6 |
| 20260510072532 | 64 | 286 | 1.0 | 5.0 | 0.00 | 0.00 | 0.00 | 66 | 1012.7 |
| 20260510071907 | 61 | 26 | 2.0 | 9.0 | 0.00 | 0.00 | 0.00 | 69 | 1012.7 |
| 20260510065240 | 59 | 75 | 2.0 | 5.0 | 0.00 | 0.00 | 0.00 | 73 | 1012.8 |
| 20260510063741 | 58 | 97 | 1.0 | 5.0 | 0.00 | 0.00 | 0.00 | 76 | 1012.9 |
| 20260510062243 | 56 | 287 | 1.0 | 3.0 | 0.00 | 0.00 | 0.00 | 80 | 1013.1 |
| 20260510053741 | 47 | 23 | 1.0 | 4.0 | 0.00 | 0.00 | 0.00 | 93 | 1013.3 |
| 20260510052236 | 46 | 64 | 0.0 | 0.0 | 0.00 | 0.00 | 0.00 | 92 | 1013.4 |
| 20260510050735 | 45 | 64 | 0.0 | 0.0 | 0.00 | 0.00 | 0.00 | 92 | 1013.3 |
| 20260510045239 | 44 | 64 | 0.0 | 0.0 | 0.00 | 0.00 | 0.00 | 91 | 1013.4 |
| 20260510043736 | 44 | 64 | 0.0 | 0.0 | 0.00 | 0.00 | 0.00 | 90 | 1013.5 |
| 20260510035233 | 43 | 64 | 0.0 | 1.0 | 0.00 | 0.00 | 0.00 | 89 | 1013.7 |
| 20260510033730 | 43 | 64 | 0.0 | 0.0 | 0.00 | 0.00 | 0.00 | 88 | 1013.7 |
| 20260510030728 | 43 | 64 | 0.0 | 0.0 | 0.00 | 0.00 | 0.00 | 86 | 1013.7 |
| 20260510025228 | 43 | 64 | 0.0 | 0.0 | 0.00 | 0.00 | 0.00 | 86 | 1013.8 |
| 20260510023725 | 44 | 64 | 0.0 | 0.0 | 0.00 | 0.00 | 0.00 | 86 | 1014.0 |
| 20260510022225 | 44 | 64 | 0.0 | 0.0 | 0.00 | 0.00 | 0.00 | 85 | 1013.9 |
| 20260510020725 | 44 | 64 | 0.0 | 0.0 | 0.00 | 0.00 | 0.00 | 84 | 1014.2 |
| 20260510013722 | 45 | 64 | 0.0 | 0.0 | 0.00 | 0.00 | 0.00 | 83 | 1014.2 |
| 20260510012221 | 45 | 64 | 0.0 | 0.0 | 0.00 | 0.00 | 0.00 | 83 | 1014.3 |
| 20260510010723 | 45 | 64 | 0.0 | 0.0 | 0.00 | 0.00 | 0.00 | 82 | 1014.4 |
| 20260510005221 | 46 | 64 | 0.0 | 0.0 | 0.00 | 0.00 | 0.00 | 82 | 1014.5 |
| 20260510003724 | 46 | 64 | 0.0 | 0.0 | 0.00 | 0.00 | 0.00 | 82 | 1014.5 |
| 20260510002221 | 47 | 64 | 0.0 | 0.0 | 0.00 | 0.00 | 0.00 | 81 | 1014.6 |
| 20260510000722 | 47 | 64 | 0.0 | 0.0 | 0.00 | 0.00 | 0.00 | 81 | 1014.8 |
| 20260509235221 | 48 | 64 | 0.0 | 0.0 | 0.00 | 0.00 | 0.00 | 80 | 1014.9 |
| 20260509233718 | 48 | 64 | 0.0 | 0.0 | 0.00 | 0.00 | 0.00 | 79 | 1015.1 |
| 20260509232218 | 49 | 64 | 0.0 | 0.0 | 0.00 | 0.00 | 0.00 | 79 | 1015.2 |
| 20260509230716 | 49 | 64 | 0.0 | 0.0 | 0.00 | 0.00 | 0.00 | 78 | 1015.3 |
| 20260509225215 | 50 | 64 | 0.0 | 0.0 | 0.00 | 0.00 | 0.00 | 77 | 1015.4 |
| 20260509223713 | 51 | 64 | 0.0 | 0.0 | 0.00 | 0.00 | 0.00 | 76 | 1015.4 |
| 20260509222212 | 51 | 64 | 0.0 | 0.0 | 0.00 | 0.00 | 0.00 | 75 | 1015.5 |
| 20260509215211 | 53 | 64 | 0.0 | 0.0 | 0.00 | 0.00 | 0.00 | 72 | 1015.6 |
| 20260509212207 | 55 | 64 | 0.0 | 0.0 | 0.00 | 0.00 | 0.00 | 68 | 1015.6 |
| 20260509210709 | 56 | 64 | 0.0 | 0.0 | 0.00 | 0.00 | 0.00 | 66 | 1015.7 |
| 20260509205207 | 58 | 64 | 0.0 | 0.0 | 0.00 | 0.00 | 0.00 | 64 | 1015.8 |
| 20260509203709 | 58 | 64 | 0.0 | 0.0 | 0.00 | 0.00 | 0.00 | 63 | 1015.9 |
| 20260509202207 | 59 | 64 | 0.0 | 0.0 | 0.00 | 0.00 | 0.00 | 62 | 1015.8 |
| 20260509200709 | 60 | 64 | 0.0 | 4.0 | 0.00 | 0.00 | 0.00 | 61 | 1015.9 |
| 20260509193706 | 62 | 49 | 0.0 | 3.0 | 0.00 | 0.00 | 0.00 | 59 | 1016.1 |
| 20260509192209 | 62 | 52 | 1.0 | 4.0 | 0.00 | 0.00 | 0.00 | 58 | 1016.1 |
| 20260509190702 | 63 | 84 | 1.0 | 6.0 | 0.00 | 0.00 | 0.00 | 56 | 1016.1 |
| 20260509183703 | 65 | 39 | 1.0 | 4.0 | 0.00 | 0.00 | 0.00 | 54 | 1015.8 |
| 20260509182207 | 66 | 314 | 2.0 | 6.0 | 0.00 | 0.00 | 0.00 | 53 | 1015.6 |
| 20260509180702 | 66 | 28 | 1.0 | 5.0 | 0.00 | 0.00 | 0.00 | 52 | 1015.5 |
| 20260509175203 | 67 | 92 | 2.0 | 5.0 | 0.00 | 0.00 | 0.00 | 51 | 1015.6 |
| 20260509173712 | 68 | 284 | 2.0 | 5.0 | 0.00 | 0.00 | 0.00 | 50 | 1015.5 |
| 20260509172203 | 68 | 40 | 1.0 | 8.0 | 0.00 | 0.00 | 0.00 | 50 | 1015.6 |
| 20260509170707 | 69 | 288 | 1.0 | 6.0 | 0.00 | 0.00 | 0.00 | 50 | 1015.5 |
| 20260509165201 | 69 | 103 | 2.0 | 8.0 | 0.00 | 0.00 | 0.00 | 49 | 1015.5 |
| 20260509163701 | 70 | 36 | 1.0 | 8.0 | 0.00 | 0.00 | 0.00 | 50 | 1015.5 |
| 20260509162203 | 70 | 265 | 3.0 | 10.0 | 0.00 | 0.00 | 0.00 | 49 | 1015.6 |
| 20260509160701 | 71 | 48 | 5.0 | 11.0 | 0.00 | 0.00 | 0.00 | 47 | 1015.7 |
| 20260509155203 | 72 | 53 | 2.0 | 12.0 | 0.00 | 0.00 | 0.00 | 46 | 1015.9 |
| 20260509153701 | 71 | 207 | 2.0 | 5.0 | 0.00 | 0.00 | 0.00 | 49 | 1016.2 |
| 20260509152203 | 71 | 43 | 3.0 | 9.0 | 0.00 | 0.00 | 0.00 | 48 | 1016.1 |
| 20260509150701 | 70 | 37 | 4.0 | 11.0 | 0.00 | 0.00 | 0.00 | 49 | 1016.3 |
| 20260509145203 | 71 | 187 | 3.0 | 8.0 | 0.00 | 0.00 | 0.00 | 48 | 1016.3 |
| 20260509143701 | 71 | 105 | 5.0 | 11.0 | 0.00 | 0.00 | 0.00 | 47 | 1016.2 |
| 20260509142200 | 73 | 76 | 3.0 | 11.0 | 0.00 | 0.00 | 0.00 | 46 | 1016.4 |
| 20260509140700 | 74 | 21 | 4.0 | 12.0 | 0.00 | 0.00 | 0.00 | 45 | 1016.4 |
| 20260509135207 | 74 | 5 | 2.0 | 9.0 | 0.00 | 0.00 | 0.00 | 43 | 1016.6 |
| 20260509133704 | 74 | 69 | 3.0 | 8.0 | 0.00 | 0.00 | 0.00 | 44 | 1016.7 |
| 20260509130702 | 73 | 76 | 2.0 | 9.0 | 0.00 | 0.00 | 0.00 | 47 | 1016.9 |
| 20260509123702 | 72 | 60 | 3.0 | 9.0 | 0.00 | 0.00 | 0.00 | 46 | 1017.1 |
| 20260509122205 | 74 | 147 | 2.0 | 6.0 | 0.00 | 0.00 | 0.00 | 45 | 1017.2 |
| 20260509120702 | 74 | 35 | 2.0 | 6.0 | 0.00 | 0.00 | 0.00 | 43 | 1017.3 |
| 20260509115201 | 73 | 240 | 2.0 | 8.0 | 0.00 | 0.00 | 0.00 | 47 | 1017.6 |
| 20260509113701 | 72 | 217 | 3.0 | 8.0 | 0.00 | 0.00 | 0.00 | 44 | 1017.7 |
| 20260509112202 | 73 | 215 | 2.0 | 7.0 | 0.00 | 0.00 | 0.00 | 47 | 1017.7 |
| 20260509110701 | 72 | 234 | 2.0 | 8.0 | 0.00 | 0.00 | 0.00 | 46 | 1017.9 |
| 20260509105203 | 70 | 140 | 2.0 | 8.0 | 0.00 | 0.00 | 0.00 | 52 | 1018.1 |
| 20260509103658 | 68 | 19 | 4.0 | 11.0 | 0.00 | 0.00 | 0.00 | 53 | 1018.2 |